Regional Weather Roundup
Issued by NWS

Home | Current Version | Previous Version | Text Only | Print | Product List | Glossary On
Versions: 1 2 3 4 5 6 7 8 9 10 11 12 13 14 15 16 17 18 19 20 21 22 23 24 25 26 27 28 29 30 31 32 33 34 35 36 37 38 39 40 41 42 43 44 45 46 47 48 49 50
000
ASUS43 KDTX 170910
RWRMI
MICHIGAN HOURLY REGIONAL WEATHER ROUNDUP
NATIONAL WEATHER SERVICE DETROIT/PONTIAC MI
400 AM EST TUE JAN 17 2017

NOTE: "FAIR" INDICATES FEW OR NO CLOUDS BELOW 12,000 FEET WITH NO
SIGNIFICANT WEATHER AND/OR OBSTRUCTION TO VISIBILITY.

MIZ047>049-052>055-059>063-066>070-074>076-081>083-171000-
SOUTHEAST LOWER MICHIGAN

CITY           SKY/WX    TMP DP  RH WIND       PRES   REMARKS
ADRIAN         CLOUDY    33  33 100 E8        29.91F FOG     WCI  26
ALMA           LGT RAIN  33  32  97 E8        29.92F WCI  26
ANN ARBOR      LGT RAIN  33  32  96 NE7       29.93F FOG     WCI  27
BAD AXE        LGT SNOW  32  31  96 SE9       30.00F WCI  24
CARO           MIX PCPN  33  32  98 E10       29.95F WCI  24
DETROIT CITY   MIX PCPN  32  32 100 E12         N/A  FOG     WCI  23
DETROIT        RAIN      34  33  96 E8        29.95F FOG     WCI  27
FLINT          LGT RAIN  33  32  96 E13       29.92F WCI  24
GROSSE ILE     RAIN      34  33  96 E8        29.94F WCI  27
HILLSDALE      MIX PCPN  34  34 100 E9        29.86F VSB 1/2 WCI  26
HOWELL         MIX PCPN  33  32  96 SE9       29.90F WCI  25

CITY           SKY/WX    TMP DP  RH WIND       PRES   REMARKS
JACKSON        CLOUDY    34  33  96 SE14      29.88F WCI  25
LAMBERTVILLE   CLOUDY    35  34  94 E10       29.92F FOG     WCI  27
LANSING        LGT RAIN  34  32  92 SE9       29.89F WCI  27
LAPEER         NOT AVBL
MASON          LGT RAIN  33  33  99 SE7       29.89F WCI  27
MONROE         LGT RAIN  35  35 100 E12G20    29.92F WCI  27
MT. CLEMENS    FRZ RAIN  32  32 100 E3        29.95F
PONTIAC        FRZ RAIN  32  30  92 E12G22    29.91F FOG     WCI  23
PORT HOPE        N/A     34  32  92 SE13      30.02F WCI  25
PORT HURON     LGT SNOW  32  32 100 E6        30.01F WCI  26
TRI CITIES     LGT RAIN  33  33 100 E14       29.94F FOG     WCI  23
MIDLAND        MIX PCPN  33  32  96 E9        29.94F WCI  25
TROY           LGT SNOW  32  31  96 E7        29.98F WCI  26
SAGINAW HB     MIX PCPN  34  32  93 E7        29.93F WCI  28
$$
MIZ043>046-050>051-056>058-064>065-071>073-077>080-171000-
SOUTHWEST LOWER MICHIGAN

CITY           SKY/WX    TMP DP  RH WIND       PRES   REMARKS
BATTLE CREEK   CLOUDY    38  37  97 SE9       29.84F WCI  31
BENTON HARBOR  RAIN      45  44  97 SE7       29.77S FOG
BIG RAPIDS     LGT SNOW  33  32  96 E9        29.89F WCI  25
COLDWATER      CLOUDY    38  38 100 SE9       29.84F FOG     WCI  32
FREMONT        LGT RAIN  34  34 100 E9        29.85F WCI  26
HOLLAND        LGT RAIN  36  34  92 E13       29.80F WCI  27
GRAND RAPIDS   LGT RAIN  34  33  96 E15       29.85F FOG     WCI  24
IONIA          MIX PCPN  32  32 100 E7        29.88F WCI  26
KALAMAZOO      CLOUDY    41  38  89 SE9       29.81F FOG
LUDINGTON      RAIN      35  35  99 E10       29.85F WCI  27
MARSHALL       CLOUDY    36  36  98 E8        29.85F FOG     WCI  30
MOUNT PLEASANT MIX PCPN  32  32  99 E9        29.91F WCI  25
MUSKEGON       LGT RAIN  35  34  96 E12       29.83F FOG     WCI  27
SOUTH HAVEN    CLOUDY    41  40  99 SE10      29.77F FOG
$$
MIZ016>042-171000-
NORTHERN LOWER MICHIGAN

CITY           SKY/WX    TMP DP  RH WIND       PRES   REMARKS
ALPENA         CLOUDY    29  24  82 E5        30.06F WCI  24
BEAVER ISLAND  CLOUDY    32  25  74 E7        29.99F WCI  26
BELLAIRE       LGT RAIN  34  33  96 N3        29.94F
CADILLAC       MIX PCPN  33  32  96 E9G16     29.88F WCI  25
CHARLEVOIX     FLURRIES  32  28  84 E6        30.00F WCI  26
FRANKFORT      CLOUDY    36  34  94 E5        29.90S WCI  32
GAYLORD        FRZ RAIN  34  30  85 VRB5      29.94F WCI  30
GRAYLING       LGT RAIN  33  32  97 E10       29.94F WCI  25
HARBOR SPRINGS MIX PCPN  31  22  70 E9        29.99F WCI  22
HOUGHTON LAKE  CLOUDY    33  31  92 E12       29.92F WCI  24
MANISTEE       LGT RAIN  35  34  96 E8        29.87F WCI  29
OSCODA         MIX PCPN  34  32  94 E7        30.03F WCI  28
PELLSTON       CLOUDY    24  19  81 CALM      30.02F
ROGERS CITY    MOCLDY    29  21  72 E3        30.06F
TRAVERSE CITY  CLOUDY    35  33  92 NE6       29.91F WCI  30
$$
MIZ007>008-015-171000-
EASTERN UPPER MICHIGAN

CITY           SKY/WX    TMP DP  RH WIND       PRES   REMARKS
KINROSS        PTCLDY    25  23  92 E7        30.05F WCI  17
MACKINAC ISLAN CLOUDY    33  32  94 E12G20    30.02F WCI  25
NEWBERRY       CLOUDY    23  22  97 NE5       30.01F WCI  16
S. S. MARIE    CLOUDY    25  21  85 E5        30.06F WCI  19
$$
MIZ004>006-011>014-085-171000-
CENTRAL UPPER MICHIGAN

CITY           SKY/WX    TMP DP  RH WIND       PRES   REMARKS
MANISTIQUE     CLOUDY    26  26  98 E7        29.99F WCI  19
ESCANABA       FLURRIES  28  27  96 N6        29.99F WCI  22
SAWYER-GWINN   CLOUDY    17  16  95 CALM      29.98F
$$
MIZ001>003-009>011-084-171000-
WESTERN UPPER MICHIGAN

CITY           SKY/WX    TMP DP  RH WIND       PRES   REMARKS
IRON MOUNTAIN  FLURRIES  25  19  78 N5        29.96F WCI  19
HOUGHTON       CLOUDY    30  27  88 E6        29.98F WCI  24
COPPER HARBOR    N/A     30  27  88 CALM      30.01F
IRONWOOD       CLOUDY    25  21  85 CALM      29.97F
$$

ABBREVIATIONS USED IN REMARKS
   TC - TEMPERATURE IN CELSIUS
  WCI - WIND CHILL INDEX
   HX - HEAT INDEX
  VSB - VISIBILITY





USA.gov is the U.S. government's official web portal to all federal, state and local government web resources and services.